Preview of NWS' New Version of Forecast
This preview is not operational and should not be used for support decisions.
Latest weather observations around

City Of Colorado Springs Municipal Airport (KCOS)

Using English Units (Switch to International System of Units)
Date/ Time (MDT) Wind (mph) Vis. (mi) Weather Sky Cond. Temp (°F) Rel. Humidity Wind Chill (°F) Heat Index (°F) Pressure Precip. (in)
Air Dwpt 6 hour Altimeter (inHg) Sea level (inHg) 1 hr 3 hr 6 hr
Max Min
Sep 20 13:54 SSW 20 10 Partly Cloudy and Windy SCT110 SCT250 82 26     13%   80 29.89 29.61      
Sep 20 12:54 SW 20 10 Partly Cloudy and Windy FEW100 SCT250 82 30     15%   80 29.91 29.63      
Sep 20 11:54   10 Partly Cloudy FEW100 SCT250 80 40     24%   79 29.93 29.66      
Sep 20 10:54 S 18 10 Mostly Clear FEW090 75 44     33%   74 29.95 29.68      
Sep 20 09:54 S 11 10 Mostly Clear FEW080 FEW160 69 47     45%     29.98 29.73      
Sep 20 08:54 NNE 6 10 Mostly Clear FEW080 FEW160 63 49     60%     30 29.76      
Sep 20 07:54 NW 3 10 Mostly Clear FEW130 FEW160 57 50     77%     30 29.77      
Sep 20 06:54 NNE 5 10 Partly Cloudy FEW012 FEW130 SCT160 51 47     86%     30 29.79      
Sep 20 05:54 E 6 10 Partly Cloudy FEW015 FEW130 SCT160 53 49     86%     30 29.75      
Sep 20 04:54 3 10 Partly Cloudy FEW015 SCT130 54 50     86%     30 29.75      
Sep 20 03:54 ENE 6 10 Mostly Cloudy FEW019 BKN130 56 50     80%     30 29.73      
Sep 20 02:54 ENE 8 10 Partly Cloudy FEW025 FEW120 SCT210 57 50     77%     30.01 29.74      
Sep 20 01:54 E 9 10 Partly Cloudy FEW130 SCT230 59 50     72%     30.03 29.75      
Sep 20 00:54 E 11 10 Partly Cloudy SCT130 61 50     67%     30.02 29.75      
Sep 19 23:54 E 9 10 Clear CLR 62 51     67%     30.02 29.75      
Sep 19 22:54 SE 9 10 Mostly Clear FEW110 65 52     63%     30.02 29.75      
Sep 19 21:54 6 10 Mostly Clear FEW110 67 52     59%     30.02 29.75      
Sep 19 20:54   10 Partly Cloudy SCT110 68 51     55%     30 29.75      
Sep 19 19:54 ESE 14 10 Partly Cloudy SCT130 72 33     24%   70 29.98 29.74      
Sep 19 18:54 S 11 10 Partly Cloudy SCT110 SCT180 77 31     18%   75 29.96 29.73      
Sep 19 17:54 SSE 17 10 Partly Cloudy SCT110 82 30     15%   80 29.96 29.72      
Sep 19 16:54 SSE 7 10 Partly Cloudy SCT110 82 32     16%   80 29.97 29.73      
Sep 19 15:54 3 10 Partly Cloudy SCT110 84 31     15%   81 29.99 29.74      
Sep 19 14:54 S 16 10 Partly Cloudy SCT110 84 32     15%   81 30.01 29.76      
Sep 19 13:54 S 17 10 Partly Cloudy SCT110 84 32     15%   81 30.03 29.78      
Sep 19 12:54 S 10 10 Partly Cloudy SCT110 81 34     18%   80 30.06 29.81      
Sep 19 11:54 S 11 10 Partly Cloudy SCT110 81 34     18%   80 30.08 29.82      
Sep 19 10:54 S 13 10 Mostly Clear FEW100 78 37     23%   77 30.1 29.85      
Sep 19 09:54 3 10 Mostly Clear FEW090 74 40     29%   72 30.11 29.86      
Notice The following observation data may not be complete
Sep 19 08:54 3 10 Clear CLR   42      %     30.12 29.87      
Sep 19 07:54 NNE 5 10 Clear CLR 59 42     53%     30.12 29.9      
Sep 19 06:54 NNE 8 9 Clear CLR 50 40     68%     30.11 29.91      
Sep 19 05:54 N 8 10 Clear CLR 50 39     66%     30.1 29.89      
Sep 19 04:54 NNE 8 10 Clear CLR 50 39     66%     30.11 29.88      
Sep 19 03:54 NNE 8 10 Clear CLR 50 39     66%     30.1 29.87      
Sep 19 02:54 N 6 10 Clear CLR 52 39     61%     30.11 29.88      
Sep 19 01:54 NE 7 10 Clear CLR 54 39     57%     30.12 29.89      
Sep 19 00:54 NNE 8 10 Clear CLR 55 38     52%     30.14 29.91      
Sep 18 23:54 NE 7 10 Clear CLR 58 38     47%     30.15 29.92      
Sep 18 22:54 N 9 10 Clear CLR 58 36     44%     30.17 29.95      
Sep 18 21:54 ENE 5 10 Mostly Clear FEW100 63 35     35%     30.17 29.93      
Sep 18 20:54 SE 8 10 Mostly Clear FEW100 67 35     31%     30.15 29.92      
Sep 18 19:54 ESE 10 10 Mostly Clear FEW100 70 35     28%     30.13 29.89      
Sep 18 18:54 SSE 16 10 Mostly Clear FEW100 74 35     24%   72 30.09 29.88      
Sep 18 17:54 S 21 10 Mostly Clear and Windy FEW100 78 36     22%   77 30.09 29.83      
Sep 18 16:54 S 18 10 Mostly Clear FEW100 80 34     19%   79 30.08 29.82      
Sep 18 15:54 SSE 18 10 Mostly Clear FEW100 81 34     18%   80 30.09 29.82      
Sep 18 14:54 S 22 10 Mostly Clear and Windy FEW100 80 34     19%   79 30.11 29.84      
Sep 18 13:54 SSE 18 10 Mostly Clear FEW100 77 35     22%   75 30.14 29.87      
Sep 18 12:54 SE 17 10 Mostly Clear FEW100 75 38     26%   73 30.17 29.9      
Sep 18 11:54 SSE 16 10 Mostly Clear FEW100 73 39     29%   71 30.19 29.95      
Sep 18 10:54 SSE 13 10 Mostly Clear FEW100 71 37     29%   69 30.21 29.96      
Sep 18 09:54 S 11 10 Mostly Clear FEW100 68 38     33%     30.22 29.97      
Sep 18 07:54 3 10 Mostly Clear FEW100 FEW130 64 38     38%     30.2 29.95      
Sep 18 06:54 NNE 8 10 Mostly Clear FEW100 FEW130 53 39     59%     30.17 29.95      
Sep 18 05:54 NNE 5 10 Mostly Clear FEW150 59 39     47%     30.15 29.89      
Sep 18 04:54 NNW 6 10 Clear CLR 61 40     46%     30.14 29.87      
Sep 18 03:54 NE 15 10 Mostly Clear FEW110 60 40     47%     30.11 29.85      
Sep 18 02:54 NE 14 10 Clear CLR 61 34     36%     30.11 29.83      
Sep 18 01:54 NNW 13 10 Clear CLR 64 35     34%     30.09 29.81      
Sep 18 00:54 NNW 9 10 Clear CLR 66 34     30%     30.09 29.8      
Sep 17 23:54 NW 8 10 Clear CLR 63 36     37%     30.09 29.82      
Sep 17 22:54 WNW 7 10 Clear CLR 66 37     34%     30.08 29.82      
Sep 17 21:54 WNW 3 10 Clear CLR 69 39     33%     30.07 29.8      
Sep 17 20:54 W 6 10 Clear   70 38     31%     30.05 29.78      
Sep 17 19:54 W 7 10 Mostly Clear FEW100 73 38     28%   71 30.04 29.76      
Sep 17 18:54 SW 14 10 Mostly Clear FEW100 76 37     24%   74 30.01 29.74      
Sep 17 17:54 SW 16 10 Mostly Clear FEW100 FEW150 80 36     20%   79 29.99 29.71      
Sep 17 16:54   10 Mostly Clear FEW100 FEW200 83 35     18%   80 29.98 29.71      
Sep 17 16:08 SW 23 10 Mostly Cloudy and Windy FEW100 SCT160 BKN200 80 35     20%   79 29.99        
Sep 17 15:54 SSW 15 10 Mostly Cloudy SCT100 SCT160 BKN200 81 37     21%   80 29.99 29.7      
Sep 17 14:54 WSW 14 10 Partly Cloudy SCT100 SCT250 83 34     17%   80 30 29.72      
Sep 17 13:54 6 10 Partly Cloudy SCT100 SCT250 82 34     18%   80 30.01 29.74      
May 15 12:54 S 18 10 Partly Cloudy SCT065 SCT200 70 41     35%     30.17 29.98      
May 13 23:05 N 9 10 Mostly Cloudy BKN019 BKN050 55 48     77%     30.08        
May 13 04:54 SE 11 5 Fog/Mist BKN004 OVC006 53 51     93%     30.04 29.83      
May 13 03:54 SE 11 5 Fog/Mist OVC005 54 51     90%     30.03 29.82      
May 12 13:54 SE 11 10 Mostly Cloudy FEW080 SCT200 BKN250 69 47     45%     29.98 29.78      
May 12 04:54 ENE 5 7 Cloudy FEW009 BKN011 OVC017 53 49     86%     29.96 29.73      
May 11 14:54 SSE 18 10 Mostly Cloudy SCT110 SCT200 BKN250 77 37     24%   76 29.77 29.53      
May 11 06:54 NW 10 10 Partly Cloudy FEW120 FEW200 SCT250 53 44     71%     29.88 29.63      
Jun 12 02:54 NNE 8 10 Clear CLR 58 54     87%     29.97 29.71      
Jun 11 23:54 Calm 10 Clear CLR 66 52     61%     29.99 29.72      
Jun 11 21:54 NNE 9 10 Mostly Clear FEW070 66 50     56%     29.98 29.69      
Jun 11 20:54 NE 8 10 Mostly Clear FEW070 70 50     49%     29.95 29.68      
Jun 11 08:54 W 5 10 Mostly Cloudy SCT200 BKN250 72 34     25%   70 29.9 29.59      
Jun 11 02:54 ESE 7 10 Mostly Cloudy FEW220 BKN250 70 17     13%     29.8 29.46      
Jun 10 22:54   10 Mostly Clear FEW240 80 21     11%   78 29.79 29.43      
Jun 10 20:54   10 Partly Cloudy FEW100 FEW160 SCT240 81        %     29.76 29.41      
Jun 10 18:54   10 Mostly Cloudy FEW100 SCT160 BKN240 88 32     14%   84 29.75 29.41      
Jun 10 10:02   10 Partly Cloudy FEW210 SCT250 86 27     12%   82 29.86        
Jun 10 08:54 Calm 10 Mostly Clear FEW220 FEW250 83 27     13%   80 29.86 29.53      
Jun 09 23:54 E 8 10 Clear CLR 63 45     52%     29.85 29.56      
Jun 09 21:54 SE 13 10 Clear CLR 70 43     38%     29.86 29.56      
Jun 09 20:54 SE 8 10 Clear CLR 76 39     26%   74 29.86 29.57      
Jun 09 14:54 E 9 10 Clear   88 24     10%   84 29.92 29.65      
Jun 08 04:54 SSW 5 10 Mostly Clear FEW150 FEW220 54 47     77%     30.22        
Jun 07 09:54 SE 14 10 Clear   72 50     46%   71 30.27 30.04